contact: severine.martini@mio.osupytheas.fr, dominique.lefevre@mio.osupytheas.fr
Project:EMSO Ligure-ouest http://www.emso-fr.org/EMSO-France
Sensor Microcat Sea-Bird SBE37 SMP,  Serial 57510 
DOI : "https://doi.org/10.17882/97948" 
Title:EMSO Ligure Ouest : Data Bathybot capteur Microcat - deploiement 2023-04-28
Datetime,Profondeur,Latitude,Longitude,Temperature,Conductivite,Pression,Salinite
time,m,degree_north,degree_east,degree_C,S/m,db,PSU 
2023-11-12T00:00:50,2420,42.8014,5.9826,13.2981,4.54318,2453.537,37.9595
2023-11-12T00:03:49,2420,42.8014,5.9826,13.2985,4.54321,2453.514,37.9594
2023-11-12T00:06:49,2420,42.8014,5.9826,13.2983,4.54328,2453.499,37.9602
2023-11-12T00:09:49,2420,42.8014,5.9826,13.2982,4.54333,2453.514,37.9608
2023-11-12T00:12:49,2420,42.8014,5.9826,13.2980,4.54326,2453.514,37.9603
2023-11-12T00:15:49,2420,42.8014,5.9826,13.2981,4.54329,2453.499,37.9605
2023-11-12T00:18:49,2420,42.8014,5.9826,13.2983,4.54323,2453.514,37.9597
2023-11-12T00:21:49,2420,42.8014,5.9826,13.2981,4.54325,2453.537,37.9601
2023-11-12T00:24:49,2420,42.8014,5.9826,13.2979,4.54332,2453.537,37.9610
2023-11-12T00:27:49,2420,42.8014,5.9826,13.2977,4.54332,2453.514,37.9612
2023-11-12T00:30:49,2420,42.8014,5.9826,13.2985,4.54320,2453.499,37.9593
2023-11-12T00:33:49,2420,42.8014,5.9826,13.2981,4.54323,2453.514,37.9599
2023-11-12T00:36:49,2420,42.8014,5.9826,13.2979,4.54333,2453.522,37.9610
2023-11-12T00:39:49,2420,42.8014,5.9826,13.2981,4.54320,2453.574,37.9596
2023-11-12T00:42:49,2420,42.8014,5.9826,13.2981,4.54314,2453.514,37.9591
2023-11-12T00:45:49,2420,42.8014,5.9826,13.2980,4.54322,2453.506,37.9599
2023-11-12T00:48:49,2420,42.8014,5.9826,13.2979,4.54328,2453.491,37.9606
2023-11-12T00:51:49,2420,42.8014,5.9826,13.2982,4.54320,2453.537,37.9596
2023-11-12T00:54:49,2420,42.8014,5.9826,13.2979,4.54340,2453.551,37.9617
2023-11-12T00:57:49,2420,42.8014,5.9826,13.2979,4.54329,2453.537,37.9607
2023-11-12T01:00:50,2420,42.8014,5.9826,13.2984,4.54328,2453.514,37.9602
2023-11-12T01:03:49,2420,42.8014,5.9826,13.2986,4.54334,2453.514,37.9605
2023-11-12T01:06:49,2420,42.8014,5.9826,13.2980,4.54341,2453.537,37.9617
2023-11-12T01:09:49,2420,42.8014,5.9826,13.2985,4.54342,2453.514,37.9613
2023-11-12T01:12:49,2420,42.8014,5.9826,13.2983,4.54331,2453.499,37.9605
2023-11-12T01:15:49,2420,42.8014,5.9826,13.2987,4.54340,2453.514,37.9609
2023-11-12T01:18:49,2420,42.8014,5.9826,13.2983,4.54334,2453.506,37.9608
2023-11-12T01:21:49,2420,42.8014,5.9826,13.2982,4.54352,2453.514,37.9626
2023-11-12T01:24:49,2420,42.8014,5.9826,13.2980,4.54346,2453.522,37.9622
2023-11-12T01:27:49,2420,42.8014,5.9826,13.2983,4.54344,2453.514,37.9617
2023-11-12T01:30:50,2420,42.8014,5.9826,13.2986,4.54340,2453.537,37.9610
2023-11-12T01:33:49,2420,42.8014,5.9826,13.2980,4.54348,2453.514,37.9624
2023-11-12T01:36:49,2420,42.8014,5.9826,13.2980,4.54358,2453.514,37.9633
2023-11-12T01:39:49,2420,42.8014,5.9826,13.2988,4.54353,2453.491,37.9621
2023-11-12T01:42:49,2420,42.8014,5.9826,13.2985,4.54358,2453.514,37.9629
2023-11-12T01:45:49,2420,42.8014,5.9826,13.2988,4.54356,2453.514,37.9624
2023-11-12T01:48:49,2420,42.8014,5.9826,13.2985,4.54348,2453.499,37.9619
2023-11-12T01:51:49,2420,42.8014,5.9826,13.2986,4.54364,2453.537,37.9633
2023-11-12T01:54:49,2420,42.8014,5.9826,13.2982,4.54365,2453.537,37.9638
2023-11-12T01:57:49,2420,42.8014,5.9826,13.2984,4.54353,2453.537,37.9624
2023-11-12T02:00:49,2420,42.8014,5.9826,13.2986,4.54364,2453.574,37.9633
2023-11-12T02:03:49,2420,42.8014,5.9826,13.2986,4.54337,2453.514,37.9607
2023-11-12T02:06:49,2420,42.8014,5.9826,13.2989,4.54362,2453.537,37.9628
2023-11-12T02:09:49,2420,42.8014,5.9826,13.2988,4.54363,2453.537,37.9630
2023-11-12T02:12:49,2420,42.8014,5.9826,13.2986,4.54359,2453.537,37.9628
2023-11-12T02:15:49,2420,42.8014,5.9826,13.2986,4.54371,2453.537,37.9640
2023-11-12T02:18:49,2420,42.8014,5.9826,13.2985,4.54367,2453.559,37.9638
2023-11-12T02:21:49,2420,42.8014,5.9826,13.2989,4.54363,2453.499,37.9629
2023-11-12T02:24:49,2420,42.8014,5.9826,13.2986,4.54383,2453.514,37.9651
2023-11-12T02:27:49,2420,42.8014,5.9826,13.2986,4.54370,2453.559,37.9638
2023-11-12T02:30:49,2420,42.8014,5.9826,13.2986,4.54360,2453.551,37.9629
2023-11-12T02:33:49,2420,42.8014,5.9826,13.2989,4.54393,2453.559,37.9657
2023-11-12T02:36:49,2420,42.8014,5.9826,13.2988,4.54381,2453.537,37.9648
2023-11-12T02:39:50,2420,42.8014,5.9826,13.2983,4.54373,2453.551,37.9645
2023-11-12T02:42:49,2420,42.8014,5.9826,13.2982,4.54337,2453.596,37.9611
2023-11-12T02:45:49,2420,42.8014,5.9826,13.2990,4.54356,2453.582,37.9621
2023-11-12T02:48:49,2420,42.8014,5.9826,13.2985,4.54362,2453.559,37.9632
2023-11-12T02:51:49,2420,42.8014,5.9826,13.2985,4.54366,2453.559,37.9636
2023-11-12T02:54:49,2420,42.8014,5.9826,13.2985,4.54361,2453.582,37.9631
2023-11-12T02:57:49,2420,42.8014,5.9826,13.2985,4.54351,2453.582,37.9622
2023-11-12T03:00:49,2420,42.8014,5.9826,13.2985,4.54360,2453.559,37.9631
2023-11-12T03:03:49,2420,42.8014,5.9826,13.2988,4.54370,2453.567,37.9636
2023-11-12T03:06:49,2420,42.8014,5.9826,13.2995,4.54369,2453.559,37.9629
2023-11-12T03:09:49,2420,42.8014,5.9826,13.2983,4.54372,2453.582,37.9643
2023-11-12T03:12:49,2420,42.8014,5.9826,13.2994,4.54359,2453.604,37.9620
2023-11-12T03:15:49,2420,42.8014,5.9826,13.2987,4.54378,2453.604,37.9645
2023-11-12T03:18:49,2420,42.8014,5.9826,13.2987,4.54344,2453.559,37.9613
2023-11-12T03:21:49,2420,42.8014,5.9826,13.2988,4.53544,2453.567,37.8859
2023-11-12T03:24:49,2420,42.8014,5.9826,13.2982,4.53596,2453.604,37.8914
2023-11-12T03:27:49,2420,42.8014,5.9826,13.2996,4.53617,2453.604,37.8920
2023-11-12T03:30:49,2420,42.8014,5.9826,13.2993,4.53621,2453.567,37.8926
2023-11-12T03:33:49,2420,42.8014,5.9826,13.2982,4.53632,2453.649,37.8948
2023-11-12T03:36:49,2420,42.8014,5.9826,13.2989,4.53624,2453.604,37.8933
2023-11-12T03:39:49,2420,42.8014,5.9826,13.2988,4.53517,2453.612,37.8833
2023-11-12T03:42:49,2420,42.8014,5.9826,13.2989,4.53527,2453.612,37.8841
2023-11-12T03:45:49,2420,42.8014,5.9826,13.2988,4.53513,2453.612,37.8829
2023-11-12T03:48:49,2420,42.8014,5.9826,13.2988,4.53359,2453.604,37.8684
2023-11-12T03:51:49,2420,42.8014,5.9826,13.2998,4.53509,2453.604,37.8815
2023-11-12T03:54:49,2420,42.8014,5.9826,13.2984,4.53499,2453.649,37.8819
2023-11-12T03:57:49,2420,42.8014,5.9826,13.2992,4.53579,2453.627,37.8887
2023-11-12T04:00:49,2420,42.8014,5.9826,13.2993,4.53554,2453.627,37.8863
2023-11-12T04:03:49,2420,42.8014,5.9826,13.2994,4.53557,2453.649,37.8864
2023-11-12T04:06:49,2420,42.8014,5.9826,13.2999,4.53536,2453.649,37.8840
2023-11-12T04:09:49,2420,42.8014,5.9826,13.2983,4.53519,2453.635,37.8840
2023-11-12T04:12:49,2420,42.8014,5.9826,13.2994,4.53513,2453.649,37.8823
2023-11-12T04:15:49,2420,42.8014,5.9826,13.2985,4.53529,2453.664,37.8848
2023-11-12T04:18:49,2420,42.8014,5.9826,13.2993,4.53524,2453.649,37.8835
2023-11-12T04:21:49,2420,42.8014,5.9826,13.2992,4.53606,2453.635,37.8912
2023-11-12T04:24:49,2420,42.8014,5.9826,13.2986,4.53534,2453.672,37.8851
2023-11-12T04:27:49,2420,42.8014,5.9826,13.2988,4.53568,2453.709,37.8881
2023-11-12T04:30:49,2420,42.8014,5.9826,13.2993,4.53377,2453.635,37.8696
2023-11-12T04:33:49,2420,42.8014,5.9826,13.2986,4.53375,2453.672,37.8701
2023-11-12T04:36:49,2420,42.8014,5.9826,13.2986,4.53529,2453.695,37.8845
2023-11-12T04:39:49,2420,42.8014,5.9826,13.2991,4.53563,2453.657,37.8874
2023-11-12T04:42:49,2420,42.8014,5.9826,13.2986,4.53560,2453.672,37.8875
2023-11-12T04:45:49,2420,42.8014,5.9826,13.2981,4.53572,2453.672,37.8891
2023-11-12T04:48:49,2420,42.8014,5.9826,13.2995,4.53544,2453.695,37.8852
2023-11-12T04:51:49,2420,42.8014,5.9826,13.2991,4.53558,2453.672,37.8869
2023-11-12T04:54:49,2420,42.8014,5.9826,13.2988,4.53618,2453.695,37.8928
2023-11-12T04:57:49,2420,42.8014,5.9826,13.2995,4.53623,2453.672,37.8926
2023-11-12T05:00:50,2420,42.8014,5.9826,13.2985,4.53615,2453.695,37.8928
2023-11-12T05:03:49,2420,42.8014,5.9826,13.2988,4.53635,2453.695,37.8944
2023-11-12T05:06:49,2420,42.8014,5.9826,13.2983,4.53642,2453.672,37.8955
2023-11-12T05:09:49,2420,42.8014,5.9826,13.2986,4.53626,2453.695,37.8937
2023-11-12T05:12:49,2420,42.8014,5.9826,13.3008,4.53665,2453.672,37.8953
2023-11-12T05:15:49,2420,42.8014,5.9826,13.2993,4.53709,2453.709,37.9009
2023-11-12T05:18:49,2420,42.8014,5.9826,13.2993,4.53706,2453.672,37.9006
2023-11-12T05:21:49,2420,42.8014,5.9826,13.2990,4.53651,2453.717,37.8957
2023-11-12T05:24:50,2420,42.8014,5.9826,13.2985,4.53603,2453.717,37.8917
2023-11-12T05:27:49,2420,42.8014,5.9826,13.2994,4.53515,2453.717,37.8825
2023-11-12T05:30:49,2420,42.8014,5.9826,13.2988,4.53582,2453.717,37.8895
2023-11-12T05:33:49,2420,42.8014,5.9826,13.2991,4.53613,2453.717,37.8920
2023-11-12T05:36:50,2420,42.8014,5.9826,13.2990,4.53640,2453.717,37.8946
2023-11-12T05:39:49,2420,42.8014,5.9826,13.2987,4.53615,2453.695,37.8926
2023-11-12T05:42:49,2420,42.8014,5.9826,13.3002,4.53606,2453.740,37.8903
2023-11-12T05:45:49,2420,42.8014,5.9826,13.2988,4.53668,2453.732,37.8975
2023-11-12T05:48:49,2420,42.8014,5.9826,13.2984,4.53672,2453.717,37.8982
2023-11-12T05:51:49,2420,42.8014,5.9826,13.2988,4.53693,2453.702,37.8998
2023-11-12T05:54:49,2420,42.8014,5.9826,13.2986,4.53666,2453.717,37.8975
2023-11-12T05:57:49,2420,42.8014,5.9826,13.2989,4.53701,2453.740,37.9005
2023-11-12T06:00:49,2420,42.8014,5.9826,13.3001,4.53678,2453.717,37.8971
2023-11-12T06:03:49,2420,42.8014,5.9826,13.2986,4.53665,2453.754,37.8974
2023-11-12T06:06:49,2420,42.8014,5.9826,13.2986,4.53699,2453.732,37.9006
2023-11-12T06:09:49,2420,42.8014,5.9826,13.3032,4.53713,2453.740,37.8974
2023-11-12T06:12:49,2420,42.8014,5.9826,13.2989,4.53700,2453.702,37.9004
2023-11-12T06:15:49,2420,42.8014,5.9826,13.2989,4.53743,2453.717,37.9045
2023-11-12T06:18:49,2420,42.8014,5.9826,13.2985,4.53691,2453.740,37.9000
2023-11-12T06:21:49,2420,42.8014,5.9826,13.2998,4.53679,2453.740,37.8975
2023-11-12T06:24:49,2420,42.8014,5.9826,13.2988,4.53705,2453.740,37.9010
2023-11-12T06:27:49,2420,42.8014,5.9826,13.3004,4.53706,2453.740,37.8995
2023-11-12T06:30:50,2420,42.8014,5.9826,13.2993,4.53689,2453.740,37.8990
2023-11-12T06:33:49,2420,42.8014,5.9826,13.2986,4.53703,2453.717,37.9010
2023-11-12T06:36:49,2420,42.8014,5.9826,13.2988,4.53706,2453.740,37.9011
2023-11-12T06:39:49,2420,42.8014,5.9826,13.2988,4.53690,2453.695,37.8996
2023-11-12T06:42:49,2420,42.8014,5.9826,13.2988,4.53687,2453.717,37.8992
2023-11-12T06:45:49,2420,42.8014,5.9826,13.2986,4.53717,2453.740,37.9023
2023-11-12T06:48:49,2420,42.8014,5.9826,13.2986,4.53709,2453.717,37.9015
2023-11-12T06:51:49,2420,42.8014,5.9826,13.2985,4.53704,2453.740,37.9012
2023-11-12T06:54:49,2420,42.8014,5.9826,13.3002,4.53702,2453.740,37.8993
2023-11-12T06:57:50,2420,42.8014,5.9826,13.2988,4.53757,2453.740,37.9059
2023-11-12T07:00:49,2420,42.8014,5.9826,13.2985,4.53743,2453.717,37.9048
2023-11-12T07:03:49,2420,42.8014,5.9826,13.2986,4.53711,2453.695,37.9017
2023-11-12T07:06:49,2420,42.8014,5.9826,13.2983,4.53729,2453.717,37.9037
2023-11-12T07:09:49,2420,42.8014,5.9826,13.2985,4.53717,2453.717,37.9025
2023-11-12T07:12:49,2420,42.8014,5.9826,13.2986,4.53744,2453.695,37.9049
2023-11-12T07:15:49,2420,42.8014,5.9826,13.2986,4.53738,2453.717,37.9042
2023-11-12T07:18:49,2420,42.8014,5.9826,13.2986,4.53762,2453.717,37.9065
2023-11-12T07:21:49,2420,42.8014,5.9826,13.2986,4.53746,2453.717,37.9050
2023-11-12T07:24:49,2420,42.8014,5.9826,13.2982,4.53743,2453.717,37.9052
2023-11-12T07:27:49,2420,42.8014,5.9826,13.2986,4.53751,2453.717,37.9055
2023-11-12T07:30:49,2420,42.8014,5.9826,13.2982,4.53766,2453.717,37.9074
2023-11-12T07:33:49,2420,42.8014,5.9826,13.2985,4.53765,2453.732,37.9070
2023-11-12T07:36:49,2420,42.8014,5.9826,13.2985,4.53751,2453.717,37.9056
2023-11-12T07:39:49,2420,42.8014,5.9826,13.2981,4.53781,2453.740,37.9089
2023-11-12T07:42:49,2420,42.8014,5.9826,13.2982,4.53759,2453.717,37.9066
2023-11-12T07:45:49,2420,42.8014,5.9826,13.2985,4.53763,2453.754,37.9067
2023-11-12T07:48:49,2420,42.8014,5.9826,13.2986,4.53760,2453.717,37.9064
2023-11-12T07:51:49,2420,42.8014,5.9826,13.2993,4.53769,2453.709,37.9065
2023-11-12T07:54:49,2420,42.8014,5.9826,13.2983,4.53781,2453.695,37.9086
2023-11-12T07:57:49,2420,42.8014,5.9826,13.2983,4.53784,2453.717,37.9089
2023-11-12T08:00:49,2420,42.8014,5.9826,13.2984,4.53798,2453.717,37.9101
2023-11-12T08:03:49,2420,42.8014,5.9826,13.2982,4.53803,2453.717,37.9108
2023-11-12T08:06:49,2420,42.8014,5.9826,13.2983,4.53848,2453.695,37.9150
2023-11-12T08:09:49,2420,42.8014,5.9826,13.2980,4.53801,2453.717,37.9108
2023-11-12T08:12:49,2420,42.8014,5.9826,13.2983,4.53840,2453.702,37.9142
2023-11-12T08:15:49,2420,42.8014,5.9826,13.2979,4.53829,2453.702,37.9136
2023-11-12T08:18:49,2420,42.8014,5.9826,13.2983,4.53810,2453.695,37.9114
2023-11-12T08:21:49,2420,42.8014,5.9826,13.2982,4.53854,2453.702,37.9156
2023-11-12T08:24:49,2420,42.8014,5.9826,13.2986,4.53851,2453.717,37.9149
2023-11-12T08:27:49,2420,42.8014,5.9826,13.2982,4.53850,2453.695,37.9152
2023-11-12T08:30:50,2420,42.8014,5.9826,13.2979,4.53864,2453.717,37.9168
2023-11-12T08:33:49,2420,42.8014,5.9826,13.2983,4.53853,2453.672,37.9154
2023-11-12T08:36:49,2420,42.8014,5.9826,13.2982,4.53870,2453.695,37.9172
2023-11-12T08:39:49,2420,42.8014,5.9826,13.2984,4.53855,2453.672,37.9155
2023-11-12T08:42:49,2420,42.8014,5.9826,13.2981,4.53848,2453.702,37.9151
2023-11-12T08:45:49,2420,42.8014,5.9826,13.2982,4.53858,2453.649,37.9160
2023-11-12T08:48:49,2420,42.8014,5.9826,13.2982,4.53853,2453.672,37.9155
2023-11-12T08:51:49,2420,42.8014,5.9826,13.2978,4.53856,2453.695,37.9161
2023-11-12T08:54:49,2420,42.8014,5.9826,13.2979,4.53873,2453.695,37.9177
2023-11-12T08:57:49,2420,42.8014,5.9826,13.2979,4.53867,2453.695,37.9171
2023-11-12T09:00:49,2420,42.8014,5.9826,13.2979,4.53889,2453.657,37.9191
2023-11-12T09:03:49,2420,42.8014,5.9826,13.2982,4.53880,2453.672,37.9181
2023-11-12T09:06:49,2420,42.8014,5.9826,13.2979,4.53866,2453.649,37.9171
2023-11-12T09:09:49,2420,42.8014,5.9826,13.2979,4.53875,2453.672,37.9179
2023-11-12T09:12:49,2420,42.8014,5.9826,13.2982,4.53905,2453.649,37.9205
2023-11-12T09:15:49,2420,42.8014,5.9826,13.2982,4.53859,2453.627,37.9161
2023-11-12T09:18:49,2420,42.8014,5.9826,13.2984,4.53868,2453.627,37.9168
2023-11-12T09:21:49,2420,42.8014,5.9826,13.2982,4.53906,2453.695,37.9205
2023-11-12T09:24:49,2420,42.8014,5.9826,13.2985,4.53887,2453.657,37.9185
2023-11-12T09:27:49,2420,42.8014,5.9826,13.2979,4.53880,2453.649,37.9183
2023-11-12T09:30:49,2420,42.8014,5.9826,13.2983,4.53864,2453.649,37.9164
2023-11-12T09:33:49,2420,42.8014,5.9826,13.2980,4.53891,2453.672,37.9193
2023-11-12T09:36:49,2420,42.8014,5.9826,13.2981,4.53855,2453.649,37.9158
2023-11-12T09:39:49,2420,42.8014,5.9826,13.2984,4.53867,2453.664,37.9166
2023-11-12T09:42:49,2420,42.8014,5.9826,13.2982,4.53879,2453.672,37.9180
2023-11-12T09:45:49,2420,42.8014,5.9826,13.2981,4.53856,2453.672,37.9159
2023-11-12T09:48:49,2420,42.8014,5.9826,13.2982,4.53848,2453.649,37.9151
2023-11-12T09:51:49,2420,42.8014,5.9826,13.2981,4.53874,2453.635,37.9176
2023-11-12T09:54:49,2420,42.8014,5.9826,13.2981,4.53891,2453.649,37.9192
2023-11-12T09:57:49,2420,42.8014,5.9826,13.2985,4.53911,2453.664,37.9207
2023-11-12T10:00:49,2420,42.8014,5.9826,13.2982,4.53891,2453.664,37.9191
2023-11-12T10:03:49,2420,42.8014,5.9826,13.2987,4.53862,2453.627,37.9159
2023-11-12T10:06:49,2420,42.8014,5.9826,13.2982,4.53824,2453.641,37.9128
2023-11-12T10:09:49,2420,42.8014,5.9826,13.2982,4.53842,2453.649,37.9145
2023-11-12T10:12:49,2420,42.8014,5.9826,13.2979,4.53898,2453.649,37.9200
2023-11-12T10:15:49,2420,42.8014,5.9826,13.2982,4.53875,2453.627,37.9176
2023-11-12T10:18:49,2420,42.8014,5.9826,13.2978,4.53896,2453.649,37.9199
2023-11-12T10:21:50,2420,42.8014,5.9826,13.2982,4.53885,2453.649,37.9186
2023-11-12T10:24:49,2420,42.8014,5.9826,13.2982,4.53904,2453.641,37.9203
2023-11-12T10:27:49,2420,42.8014,5.9826,13.2980,4.53905,2453.612,37.9206
2023-11-12T10:30:49,2420,42.8014,5.9826,13.2981,4.53925,2453.612,37.9224
2023-11-12T10:33:49,2420,42.8014,5.9826,13.2985,4.53884,2453.649,37.9182
2023-11-12T10:36:49,2420,42.8014,5.9826,13.2985,4.53926,2453.627,37.9221
2023-11-12T10:39:49,2420,42.8014,5.9826,13.2979,4.53890,2453.627,37.9192
2023-11-12T10:42:49,2420,42.8014,5.9826,13.2986,4.53921,2453.649,37.9215
2023-11-12T10:45:49,2420,42.8014,5.9826,13.2982,4.53945,2453.627,37.9242
2023-11-12T10:48:49,2420,42.8014,5.9826,13.2984,4.53903,2453.641,37.9200
2023-11-12T10:51:49,2420,42.8014,5.9826,13.2982,4.53909,2453.582,37.9209
2023-11-12T10:54:49,2420,42.8014,5.9826,13.2982,4.53928,2453.627,37.9226
2023-11-12T10:57:49,2420,42.8014,5.9826,13.2986,4.53913,2453.582,37.9208
2023-11-12T11:00:49,2420,42.8014,5.9826,13.2983,4.53938,2453.590,37.9235
2023-11-12T11:03:49,2420,42.8014,5.9826,13.2985,4.53917,2453.604,37.9212
2023-11-12T11:06:49,2420,42.8014,5.9826,13.2985,4.53899,2453.604,37.9196
2023-11-12T11:09:49,2420,42.8014,5.9826,13.2985,4.53939,2453.604,37.9234
2023-11-12T11:12:49,2420,42.8014,5.9826,13.2987,4.53905,2453.604,37.9199
2023-11-12T11:15:49,2420,42.8014,5.9826,13.2984,4.53916,2453.582,37.9213
2023-11-12T11:18:49,2420,42.8014,5.9826,13.2985,4.53934,2453.649,37.9229
2023-11-12T11:21:49,2420,42.8014,5.9826,13.2986,4.53889,2453.604,37.9185
2023-11-12T11:24:49,2420,42.8014,5.9826,13.2984,4.53948,2453.582,37.9243
2023-11-12T11:27:49,2420,42.8014,5.9826,13.2985,4.53886,2453.582,37.9184
2023-11-12T11:30:49,2420,42.8014,5.9826,13.2985,4.53914,2453.582,37.9210
2023-11-12T11:33:49,2420,42.8014,5.9826,13.2982,4.53915,2453.582,37.9214
2023-11-12T11:36:49,2420,42.8014,5.9826,13.2987,4.53890,2453.582,37.9186
2023-11-12T11:39:49,2420,42.8014,5.9826,13.2986,4.53928,2453.604,37.9222
2023-11-12T11:42:49,2420,42.8014,5.9826,13.2986,4.53917,2453.582,37.9211
2023-11-12T11:45:49,2420,42.8014,5.9826,13.2986,4.53957,2453.582,37.9249
2023-11-12T11:48:49,2420,42.8014,5.9826,13.2988,4.53932,2453.590,37.9225
2023-11-12T11:51:49,2420,42.8014,5.9826,13.2985,4.53952,2453.604,37.9246
2023-11-12T11:54:49,2420,42.8014,5.9826,13.2985,4.53875,2453.596,37.9173
2023-11-12T11:57:49,2420,42.8014,5.9826,13.2984,4.53904,2453.559,37.9202
2023-11-12T12:00:49,2420,42.8014,5.9826,13.2987,4.53897,2453.559,37.9192
2023-11-12T12:03:49,2420,42.8014,5.9826,13.2985,4.53933,2453.582,37.9228
2023-11-12T12:06:49,2420,42.8014,5.9826,13.2988,4.53898,2453.619,37.9192
2023-11-12T12:09:49,2420,42.8014,5.9826,13.2991,4.53906,2453.582,37.9197
2023-11-12T12:12:49,2420,42.8014,5.9826,13.2990,4.53901,2453.574,37.9193
2023-11-12T12:15:49,2420,42.8014,5.9826,13.2988,4.53895,2453.582,37.9190
2023-11-12T12:18:49,2420,42.8014,5.9826,13.2988,4.53884,2453.582,37.9180
2023-11-12T12:21:50,2420,42.8014,5.9826,13.2985,4.53909,2453.559,37.9206
2023-11-12T12:24:49,2420,42.8014,5.9826,13.2988,4.53888,2453.582,37.9183
2023-11-12T12:27:49,2420,42.8014,5.9826,13.2994,4.53891,2453.582,37.9179
2023-11-12T12:30:49,2420,42.8014,5.9826,13.2988,4.53898,2453.574,37.9193
2023-11-12T12:33:49,2420,42.8014,5.9826,13.2985,4.53931,2453.559,37.9226
2023-11-12T12:36:49,2420,42.8014,5.9826,13.2986,4.53913,2453.559,37.9208
2023-11-12T12:39:49,2420,42.8014,5.9826,13.2990,4.53931,2453.567,37.9221
2023-11-12T12:42:49,2420,42.8014,5.9826,13.2986,4.53925,2453.559,37.9219
2023-11-12T12:45:49,2420,42.8014,5.9826,13.2985,4.53917,2453.574,37.9213
2023-11-12T12:48:49,2420,42.8014,5.9826,13.2988,4.53916,2453.559,37.9209
2023-11-12T12:51:49,2420,42.8014,5.9826,13.2986,4.53923,2453.559,37.9218
2023-11-12T12:54:49,2420,42.8014,5.9826,13.2989,4.53909,2453.582,37.9201
2023-11-12T12:57:49,2420,42.8014,5.9826,13.2987,4.53950,2453.582,37.9242
2023-11-12T13:00:49,2420,42.8014,5.9826,13.2989,4.53978,2453.582,37.9267
2023-11-12T13:03:49,2420,42.8014,5.9826,13.2990,4.53921,2453.582,37.9212
2023-11-12T13:06:49,2420,42.8014,5.9826,13.2986,4.53914,2453.582,37.9208
2023-11-12T13:09:49,2420,42.8014,5.9826,13.2987,4.53965,2453.559,37.9256
2023-11-12T13:12:49,2420,42.8014,5.9826,13.2989,4.53945,2453.559,37.9236
2023-11-12T13:15:49,2420,42.8014,5.9826,13.2992,4.53959,2453.582,37.9245
2023-11-12T13:18:49,2420,42.8014,5.9826,13.2989,4.53957,2453.559,37.9247
2023-11-12T13:21:49,2420,42.8014,5.9826,13.2988,4.53959,2453.582,37.9250
2023-11-12T13:24:49,2420,42.8014,5.9826,13.2991,4.53965,2453.582,37.9252
2023-11-12T13:27:49,2420,42.8014,5.9826,13.2988,4.53965,2453.559,37.9254
2023-11-12T13:30:49,2420,42.8014,5.9826,13.2987,4.53974,2453.582,37.9264
2023-11-12T13:33:49,2420,42.8014,5.9826,13.2990,4.53940,2453.596,37.9230
2023-11-12T13:36:49,2420,42.8014,5.9826,13.2995,4.53956,2453.559,37.9240
2023-11-12T13:39:49,2420,42.8014,5.9826,13.2991,4.53962,2453.544,37.9249
2023-11-12T13:42:49,2420,42.8014,5.9826,13.2992,4.54002,2453.582,37.9286
2023-11-12T13:45:49,2420,42.8014,5.9826,13.2990,4.53942,2453.582,37.9231
2023-11-12T13:48:49,2420,42.8014,5.9826,13.2988,4.53995,2453.582,37.9283
2023-11-12T13:51:49,2420,42.8014,5.9826,13.2991,4.53975,2453.604,37.9261
2023-11-12T13:54:49,2420,42.8014,5.9826,13.2993,4.53994,2453.582,37.9278
2023-11-12T13:57:49,2420,42.8014,5.9826,13.2988,4.53967,2453.582,37.9257
2023-11-12T14:00:49,2420,42.8014,5.9826,13.2988,4.53936,2453.544,37.9227
2023-11-12T14:03:50,2420,42.8014,5.9826,13.2993,4.53942,2453.596,37.9229
2023-11-12T14:06:49,2420,42.8014,5.9826,13.2990,4.53970,2453.582,37.9257
2023-11-12T14:09:49,2420,42.8014,5.9826,13.2988,4.54008,2453.596,37.9296
2023-11-12T14:12:49,2420,42.8014,5.9826,13.2996,4.53996,2453.604,37.9276
2023-11-12T14:15:49,2420,42.8014,5.9826,13.2988,4.54037,2453.596,37.9322
2023-11-12T14:18:49,2420,42.8014,5.9826,13.2988,4.53965,2453.559,37.9255
2023-11-12T14:21:49,2420,42.8014,5.9826,13.2988,4.53976,2453.544,37.9266
2023-11-12T14:24:49,2420,42.8014,5.9826,13.2987,4.54000,2453.582,37.9289
2023-11-12T14:27:49,2420,42.8014,5.9826,13.2995,4.53976,2453.582,37.9258
2023-11-12T14:30:49,2420,42.8014,5.9826,13.2985,4.53973,2453.604,37.9266
2023-11-12T14:33:49,2420,42.8014,5.9826,13.2991,4.53945,2453.559,37.9234
2023-11-12T14:36:49,2420,42.8014,5.9826,13.2991,4.53948,2453.604,37.9236
2023-11-12T14:39:49,2420,42.8014,5.9826,13.2988,4.53939,2453.627,37.9231
2023-11-12T14:42:49,2420,42.8014,5.9826,13.2987,4.53972,2453.582,37.9262
2023-11-12T14:45:49,2420,42.8014,5.9826,13.2996,4.53938,2453.604,37.9222
2023-11-12T14:48:49,2420,42.8014,5.9826,13.2988,4.53911,2453.604,37.9204
2023-11-12T14:51:49,2420,42.8014,5.9826,13.2985,4.53945,2453.604,37.9240
2023-11-12T14:54:49,2420,42.8014,5.9826,13.2985,4.53933,2453.627,37.9228
2023-11-12T14:57:49,2420,42.8014,5.9826,13.2988,4.53989,2453.604,37.9278
2023-11-12T15:00:49,2420,42.8014,5.9826,13.2986,4.53923,2453.604,37.9217
2023-11-12T15:03:49,2420,42.8014,5.9826,13.2991,4.53927,2453.604,37.9217
2023-11-12T15:06:49,2420,42.8014,5.9826,13.2986,4.53951,2453.627,37.9244
2023-11-12T15:09:49,2420,42.8014,5.9826,13.2988,4.53984,2453.627,37.9273
2023-11-12T15:12:49,2420,42.8014,5.9826,13.2985,4.53977,2453.627,37.9269
2023-11-12T15:15:49,2420,42.8014,5.9826,13.2987,4.53961,2453.612,37.9252
2023-11-12T15:18:49,2420,42.8014,5.9826,13.2989,4.53975,2453.627,37.9263
2023-11-12T15:21:49,2420,42.8014,5.9826,13.2986,4.53981,2453.649,37.9272
2023-11-12T15:24:49,2420,42.8014,5.9826,13.2983,4.53994,2453.627,37.9287
2023-11-12T15:27:49,2420,42.8014,5.9826,13.2988,4.54025,2453.627,37.9311
2023-11-12T15:30:49,2420,42.8014,5.9826,13.2984,4.53929,2453.627,37.9225
2023-11-12T15:33:49,2420,42.8014,5.9826,13.2988,4.53983,2453.649,37.9272
2023-11-12T15:36:49,2420,42.8014,5.9826,13.3000,4.53970,2453.627,37.9249
2023-11-12T15:39:49,2420,42.8014,5.9826,13.2991,4.53976,2453.649,37.9263
2023-11-12T15:42:49,2420,42.8014,5.9826,13.2988,4.53977,2453.635,37.9266
2023-11-12T15:45:49,2420,42.8014,5.9826,13.2995,4.53937,2453.664,37.9221
2023-11-12T15:48:49,2420,42.8014,5.9826,13.2988,4.54002,2453.664,37.9290
2023-11-12T15:51:49,2420,42.8014,5.9826,13.2991,4.54005,2453.672,37.9290
2023-11-12T15:54:49,2420,42.8014,5.9826,13.3000,4.54081,2453.695,37.9352
2023-11-12T15:57:49,2420,42.8014,5.9826,13.2993,4.54029,2453.672,37.9311
2023-11-12T16:00:49,2420,42.8014,5.9826,13.2985,4.54022,2453.649,37.9312
2023-11-12T16:03:49,2420,42.8014,5.9826,13.2990,4.54031,2453.649,37.9315